Regional Weather Roundup
Issued by NWS

Home | Current Version | Previous Version | Text Only | Print | Product List | Glossary Off
Versions: 1 2 3 4 5 6 7 8 9 10 11 12 13 14 15 16 17 18 19 20 21 22 23 24 25 26 27 28 29 30 31 32 33 34 35 36 37 38 39 40 41 42 43 44 45 46 47 48 49 50

000
ASUS43 KMKX 240931
RWRWI

WISCONSIN REGIONAL WEATHER ROUNDUP
NATIONAL WEATHER SERVICE MILWAUKEE/SULLIVAN WI
500 AM CDT SUN MAY 24 2015

NOTE: "FAIR" INDICATES FEW OR NO CLOUDS BELOW 12,000 FEET WITH NO
SIGNIFICANT WEATHER AND/OR OBSTRUCTIONS TO VISIBILITY.

WIZ001-002-006>008-014>016-023>028-241100-
NORTHWEST WISCONSIN

CITY           SKY/WX    TMP DP  RH WIND       PRES   REMARKS
SUPERIOR ARPT  PTCLDY    48  43  85 CALM      30.16R
ASHLAND        CLOUDY    49  46  90 CALM      30.15S
HAYWARD        CLOUDY    53  48  83 NE3       30.17R
SIREN          CLOUDY    55  51  86 CALM      30.15R
CUMBERLAND     CLOUDY    55  46  71 NE5       30.14F
RICE LAKE      CLOUDY    56  52  86 CALM      30.16S
CHETEK         CLOUDY    55  52  90 CALM      30.15S
LADYSMITH      CLOUDY    58  48  69 E6        30.17S
EAU CLAIRE     CLOUDY    56  48  74 CALM      30.14R
MENOMONIE      CLOUDY    60  46  60 CALM      30.14S
NEW RICHMOND   CLOUDY    59  47  64 E3        30.13F
OSCEOLA        CLOUDY    56  55  98 CALM      30.15S
$$

WIZ003>005-009-010-017-018-241100-
NORTH CENTRAL WISCONSIN

CITY           SKY/WX    TMP DP  RH WIND       PRES   REMARKS
MANITOWISH WTR CLOUDY    53  48  85 CALM      30.18S
ARBOR VITAE    CLOUDY    57  50  78 CALM      30.17F
WOODRUFF       CLOUDY    57  50  78 CALM      30.17F
RHINELANDER    CLOUDY    57  50  77 CALM      30.19S
EAGLE RIVER    CLOUDY    55  44  66 CALM      30.18S
LAND O LAKES   CLOUDY    52  46  81 CALM      30.19S
PHILLIPS       CLOUDY    54  51  89 CALM      30.16S
TOMAHAWK       CLOUDY    52  48  88 CALM      30.18S
MEDFORD        CLOUDY    53  48  82 CALM      30.17S
MERRILL        CLOUDY    53  52  96 CALM      30.19R
$$

WIZ029-030-035-036-043>047-241100-
CENTRAL WISCONSIN

CITY           SKY/WX    TMP DP  RH WIND       PRES   REMARKS
WAUSAU         CLOUDY    56  49  77 CALM      30.16S
MOSINEE        MOCLDY    57  43  58 CALM      30.18S
MARSHFIELD     MOCLDY    57  46  66 E3        30.17R
STEVENS POINT  MOCLDY    51  48  89 CALM      30.18S
WAUPACA        PTCLDY    54  48  82 CALM      30.18S
WAUTOMA        CLEAR     50  49  96 CALM      30.18S
WISC RAPIDS    PTCLDY    53  45  74 CALM      30.18S
CAMP DOUGLAS   MOCLDY    49  49 100 E3        30.15F
$$

WIZ011>013-019>022-031-037>040-048>050-241100-
NORTHEAST WISCONSIN

CITY           SKY/WX    TMP DP  RH WIND       PRES   REMARKS
ANTIGO         CLOUDY    56  48  74 CALM      30.18S
SHAWANO        CLOUDY    59  48  67 CALM      30.18S
OCONTO         MOCLDY    51  49  92 CALM      30.17S
STURGEON BAY   MOCLDY    59  39  47 S6        30.20S
GREEN BAY      MOCLDY    59  43  55 CALM      30.18R
MANITOWOC      PTCLDY    48  45  89 CALM      30.20R
APPLETON       PTCLDY    57  43  58 S3        30.19R
CLINTONVILLE   CLOUDY    55  48  76 CALM      30.18S
OSHKOSH        PTCLDY    51  43  74 SE3       30.18R
$$

WIZ032>034-041-042-053>061-241100-
SOUTHWEST WISCONSIN

CITY           SKY/WX    TMP DP  RH WIND       PRES   REMARKS
LA CROSSE      CLOUDY    60  50  69 SE6       30.13F
SPARTA         MOCLDY    51  48  89 CALM      30.16S
VIROQUA        CLOUDY    60  46  58 SE6       30.16F
BOSCOBEL       MOCLDY    56  51  84 CALM      30.15F
PRAIRIE DU CHI CLOUDY    56  50  78 CALM      30.13F
PLATTEVILLE    CLOUDY    62  50  63 SE7       30.15F
$$

WIZ056-057-062-063-064-067-068-241100-
SOUTH CENTRAL WISCONSIN

CITY           SKY/WX    TMP DP  RH WIND       PRES   REMARKS
REEDSBURG      MOCLDY    52  50  91 CALM      30.17S
BARABOO/DELLS  MOCLDY    55  46  73 CALM      30.17S
LONE ROCK      MOCLDY    53  49  86 CALM      30.17S
MINERAL POINT  MOCLDY    61  46  59 SE5       30.16F
MADISON        MOCLDY    55  47  74 CALM      30.18R
MIDDLETON      MOCLDY    54  47  78 CALM      30.18F
WATERTOWN      CLOUDY    55  46  73 CALM      30.19R
MONROE         CLOUDY    61  48  63 SE3       30.17S
JANESVILLE     MOCLDY    55  46  71 CALM      30.18S
$$

WIZ051-052-058>065-066-070>072-241100-
SOUTHEAST WISCONSIN

CITY           SKY/WX    TMP DP  RH WIND       PRES   REMARKS
MILWAUKEE      PTCLDY    60  43  53 SW8       30.20R
WAUKESHA       CLOUDY    59  41  51 S3        30.21R
MILWAUKEE/TIMM MOCLDY    52  41  66 CALM      30.21R
RACINE         PTCLDY    61  45  55 SW8       30.22R
BURLINGTON     PTCLDY    49  46  89 CALM      30.20S
KENOSHA        PTCLDY    54  45  71 SW3       30.20R
FOND DU LAC    PTCLDY    58  41  53 S5        30.19R
SHEBOYGAN      CLEAR     44  40  85 CALM      30.20R
WEST BEND      PTCLDY    48  43  81 CALM      30.20R
JUNEAU         MOCLDY    56  44  64 SE5       30.20S
$$

LSZ147-162-241100-
LAKE SUPERIOR

STATION/POSITION TIME  TEMP    WIND        PRES    WAVE
                       AIR SEA DIR/SP/G            HT/PER
                 (UTC) (F)     (DEG/KT/KT) (MB)    (FT/S)
W MID LAKE BUOY  0850   43 36  220/ 12/ 12   N/A     1/ 3
DEVILS ISLAND    0900   58     230/ 12/ 13   N/A
PORT WING        0740   51     160/  2/  4   N/A
SAXON HARBOR     0700   51     200/  5/  6   N/A
$$

LMZ867-665-643>646-241100-
LAKE MICHIGAN

STATION/POSITION TIME  TEMP    WIND        PRES    WAVE
                       AIR SEA DIR/SP/G            HT/PER
                 (UTC) (F)     (DEG/KT/KT) (MB)    (FT/S)
CHAMBERS ISLAND  0800   61     180/  4/  7   N/A
N MID LAKE BUOY  0850   42 36  200/  8/ 10   N/A     1/ 4
NORTHPORT PIER   0800   64     230/  5/  9   N/A
SISTER BAY       0818   63        CALM       N/A
KEWAUNEE LAKESHO 0800   50     180/  8/  9   N/A
SHEBOYGAN LAKESH 0900   53     160/  3/  3   N/A
PORT WASHINGTON  0800   49     250/  1/  1   N/A
ATWATER BUOY     0900   49 45   10/  2/  4   N/A
MILWAUKEE LAKESH 0900   52      90/  2/  2   N/A
S MID LAKE BUOY  0850   47 38  180/ 10/ 10   N/A     0
KENOSHA   LAKESH 0900   60     240/  5/  7   N/A
$$

TC  - TEMPERATURE IN CELSIUS
VSB - VISIBILITY IN STATUTE MILES
WCI - WIND CHILL INDEX
HX  - HEAT INDEX



USA.gov is the U.S. government's official web portal to all federal, state and local government web resources and services.